Location: Goszcza
(50.1887°N, 20.0662°E)
Time: 12:12:31
(UTC+00:00)

Daily predictions for brighter satellites

Satellite Brightness Start Highest point End
(mag) Time Altitude Azimuth Time Altitude Azimuth Time Altitude Azimuth
Cosmos 2360 4.3 19:29:50 10° NNW 19:35:36 81° ENE 19:41:21 10° SSE
Ariane Rocket 3.4 19:31:19 10° S 19:36:23 67° WSW 19:41:29 10° NNW
Cosmos 2082 Rocket 3.3 19:32:16 10° SSE 19:36:47 25° ESE 19:41:18 10° NE
Meteor 1-24 Rocket 4.4 19:31:35 10° SSW 19:36:51 57° WNW 19:42:20 10° N
Cosmos 1455 3.4 19:34:43 10° NNW 19:38:21 43° W 19:41:59 10° SSW
SPOT 3 Rocket 3.6 19:35:56 10° SSE 19:41:09 90° WSW 19:46:25 10° NNW
ATLAS 2AS CENTAUR R/B 4.1 19:38:28 10° NW 19:44:27 30° WSW 19:50:06 10° S
Cosmos 2360 Rocket 4.5 19:41:23 10° N 19:44:37 15° NNE 19:47:50 10° ENE
USA 234 4.1 19:38:27 10° E 19:44:45 51° N 19:51:03 10° WNW
Cosmos 2228 3.0 19:41:28 10° N 19:45:43 74° E 19:49:57 10° SSE
Cosmos 2058 Rocket 4.3 19:49:17 10° N 19:53:12 30° ENE 19:57:03 10° SE
Resurs 01 Rocket 3.3 19:50:22 10° SSW 19:54:19 31° W 19:58:17 10° NNW
Meteor 1-21 Rocket 4.3 19:49:55 10° S 19:55:25 62° E 20:01:05 10° NNE
Cosmos 2184 Rocket 4.1 19:50:25 10° NNW 19:56:37 79° W 20:02:49 10° S
Cosmos 1331 Rocket 4.0 19:55:49 10° SSW 20:01:05 73° ESE 20:06:24 10° NNE
SPOT 5 2.6 19:59:00 10° SSE 20:03:22 87° WSW 20:07:43 10° NNW
Terra 1.9 20:00:49 10° SSE 20:05:29 70° ENE 20:10:15 10° N
Spot 2 Rocket 3.6 20:01:41 10° SSE 20:06:47 82° WSW 20:11:56 10° NNW
CZ-4B R/B 3.1 20:04:19 10° N 20:06:53 28° WNW 20:09:26 10° SW
SJ 16-02 3.7 20:05:31 10° NNE 20:08:00 15° NE 20:10:30 10° E
H-2A R/B 4.0 20:05:11 10° N 20:09:08 32° WNW 20:13:08 10° SW
Cosmos 1892 3.9 20:09:28 13° SE 20:12:00 26° E 20:15:10 10° NNE
FALCON 9 DEB 3.0 20:11:06 10° WNW 20:14:22 81° NNE 20:17:36 10° ESE
ASTEX 1 4.3 20:10:59 10° NNE 20:15:31 33° E 20:19:15 14° SE
USA 245 4.3 20:13:25 10° S 20:17:04 36° WSW 20:20:04 10° NNW
Cosmos 1697 Rocket 3.3 20:13:01 10° NW 20:18:28 51° WSW 20:23:48 10° S
Cosmos 1980 Rocket 2.2 20:13:02 10° NNW 20:18:47 89° ENE 20:23:43 14° SSE
Cosmos 1606 Rocket 3.6 20:14:34 10° NNW 20:18:55 79° W 20:23:02 11° S
SL-16 R/B 3.4 20:14:39 10° NNW 20:19:48 34° NE 20:24:55 10° ESE
Meteor 2-1 Rocket 4.4 20:17:49 10° NNW 20:23:19 73° W 20:28:47 10° S
GP-B 3.9 20:20:18 10° NNE 20:24:27 37° E 20:27:35 16° SSE
Cosmos 2369 3.8 20:18:53 10° NNW 20:24:39 77° WSW 20:29:34 14° SSE
ARIANE 5 R/B 2.6 20:21:13 14° SSE 20:25:01 79° ENE 20:29:28 10° NNW
USA 276 1.9 20:22:06 10° W 20:25:08 81° S 20:28:04 11° ESE
Cosmos 2341 Rocket 4.2 20:19:02 10° N 20:25:20 65° ENE 20:30:42 14° SSE
Cosmos 2344 4.4 20:18:32 10° NW 20:27:19 76° SW 20:38:14 14° SSE
ERS-1 Rocket 3.3 20:22:20 10° S 20:27:20 63° WSW 20:32:21 10° NNW
ATLAS 5 CENTAUR R/B 2.4 20:27:05 17° SSE 20:28:53 23° ESE 20:32:08 10° ENE
Cosmos 1110 Rocket 4.5 20:24:01 10° SW 20:29:15 65° WNW 20:34:34 10° NNE
Cosmos 1302 Rocket 4.0 20:27:10 10° SSW 20:32:19 68° ESE 20:37:30 10° NNE
COSMOS 2406 3.2 20:27:41 10° SSW 20:33:27 83° ESE 20:39:14 10° NNE
Cosmos 1726 Rocket 3.9 20:36:57 10° NNW 20:41:13 60° W 20:44:55 14° S
Cosmos 968 Rocket 3.7 20:37:14 10° NNW 20:42:24 65° WSW 20:46:32 16° S
Cosmos 1833 Rocket 3.5 20:38:59 10° SW 20:44:29 55° NW 20:50:02 10° NNE
Okean 1-7 Rocket 4.3 20:42:25 18° SSE 20:45:13 39° E 20:49:25 10° NNE
Cosmos 1408 2.3 20:45:32 18° S 20:48:00 78° E 20:51:28 10° NNE
Meteor 1-27 4.3 20:43:04 10° N 20:48:37 64° ENE 20:52:42 19° SSE
Cosmos 1869 3.7 20:45:12 10° N 20:49:00 48° ENE 20:51:20 21° SE
USA 267 3.8 20:45:38 10° ENE 20:51:29 34° SE 20:57:18 10° SSW
Cosmos 2181 Rocket 4.1 20:49:51 16° S 20:54:46 61° E 21:00:56 10° NNE
Cosmos 2322 Rocket 3.1 20:49:22 10° NNW 20:54:46 42° NE 20:59:38 13° ESE
Cosmos 1825 2.6 20:54:14 23° SSE 20:56:11 44° E 20:59:47 10° NNE
Cosmos 1932 4.5 20:51:25 10° SSW 20:57:33 62° ESE 21:03:48 10° NE
Cosmos 1812 Rocket 4.4 20:55:08 10° N 20:59:20 39° ENE 21:02:00 19° SE
TIMED 4.4 20:56:11 11° SSW 21:00:21 84° ESE 21:04:46 10° NNE
Cosmos 1867 4.1 20:56:42 10° NW 21:01:57 48° WSW 21:05:33 19° S
Cosmos-2242 4.0 21:00:04 10° N 21:03:57 34° ENE 21:06:23 19° SE
Cosmos 2278 3.9 21:01:16 10° NNW 21:06:58 69° WSW 21:10:53 21° SSE
Cosmos 2333 Rocket 3.9 21:07:25 10° NNW 21:12:22 28° NE 21:17:18 10° ESE
Meteor 1-11 4.4 21:07:11 10° SSW 21:12:41 72° WNW 21:18:17 10° N
Cosmos 1602 Rocket 4.1 21:11:47 24° SSE 21:13:56 43° E 21:18:02 10° NNE
SAR-Lupe-4 3.5 21:15:18 10° NNE 21:18:54 86° WNW 21:21:02 23° SSW
Cosmos 2082 Rocket 2.6 21:14:44 10° SW 21:20:25 66° WNW 21:26:06 10° NNE
Gbstr 26 Del rocket 4.4 21:22:45 20° SE 21:22:45 20° SE 21:25:51 10° E
ALOS 2 3.4 21:23:19 21° SE 21:25:52 42° ENE 21:30:02 10° N
USA 234 3.4 21:20:52 10° ESE 21:27:25 78° NNE 21:34:00 10° WNW
SL-8 Rocket 4.4 21:22:27 10° NNW 21:28:32 57° W 21:33:12 17° SSW
Cosmos 2360 Rocket 2.9 21:24:33 10° NNW 21:30:05 49° NE 21:34:31 16° SE
Cosmos 2058 Rocket 4.4 21:27:13 10° NNW 21:31:11 33° W 21:34:19 15° SSW
Cosmos 1606 3.3 21:30:59 10° N 21:34:44 47° ENE 21:36:26 28° SE
Cosmos 1626 Rocket 3.6 21:33:53 23° SSW 21:36:35 77° W 21:40:58 10° N
Cosmos 1633 2.4 21:38:43 36° S 21:40:00 73° E 21:43:28 10° NNE
Cosmos 1992 Rocket 4.2 21:36:31 13° SSW 21:41:13 74° WNW 21:46:29 10° NNE
Terra 4.0 21:40:39 10° SW 21:43:45 17° W 21:46:52 10° NW
SJ 16-02 1.3 21:42:49 10° NNW 21:47:17 85° ENE 21:49:28 30° SSE
Cosmos 1892 4.4 21:44:17 10° SW 21:47:29 28° WNW 21:50:47 10° N
H-2A R/B 3.9 21:44:43 10° NNE 21:48:49 48° E 21:50:28 31° SSE
Cosmos 2237 4.2 21:43:24 10° NNW 21:49:11 90° ENE 21:52:41 25° SSE
Cosmos 1825 Rocket 4.1 21:47:39 28° SE 21:49:24 44° E 21:53:32 10° NNE
FALCON 9 DEB 4.4 21:47:39 10° W 21:50:07 24° SW 21:50:07 24° SW
Meteor 2-20 4.4 21:46:54 23° S 21:50:48 78° E 21:56:55 10° NNE
Cosmos 2058 3.5 21:51:56 29° SE 21:53:32 44° E 21:57:32 10° NNE
COSMOS 2428 4.3 21:54:00 10° NNW 21:59:03 31° NE 22:04:05 10° ESE
USA 276 3.4 21:57:57 10° W 21:59:52 26° WSW 21:59:52 26° WSW
ADEOS Rocket 3.6 21:56:00 23° SSE 22:01:05 88° ENE 22:08:56 10° NNW
Cosmos 2221 3.7 21:57:09 10° N 22:01:10 34° ENE 22:03:28 21° SE
Cosmos 1980 Rocket 4.2 21:58:26 10° WNW 22:01:59 17° W 22:05:29 10° SW
SL-16 R/B 2.5 21:58:39 10° NW 22:04:12 54° WSW 22:07:09 27° S
Cosmos 2219 Rocket 3.2 22:01:06 10° NNW 22:06:31 43° NE 22:11:32 12° ESE
Cosmos 1934 Rocket 4.1 22:01:51 10° N 22:07:56 67° ENE 22:11:40 25° SSE
Cosmos 1354 Rocket 4.4 22:06:23 10° NNW 22:11:32 52° WSW 22:14:08 27° S
ERS-2 2.9 22:08:57 10° NNE 22:12:18 36° E 22:13:08 32° SE
ISS -1.2 22:14:52 11° E 22:14:52 11° E 22:15:04 10° E
ATLAS 5 CENTAUR R/B 2.3 22:09:18 10° WSW 22:13:01 49° NW 22:17:18 10° NE
SL-4 R/B 2.0 22:14:13 42° SSE 22:14:13 42° SSE 22:17:39 10° E
COSMOS 2487 4.3 22:17:23 15° E 22:17:23 15° E 22:19:12 10° ENE
Meteor 2-20 Rocket 4.4 22:15:50 25° S 22:19:35 90° W 22:25:44 10° N
SL-27 R/B 4.0 22:20:25 20° ESE 22:20:34 20° ESE 22:23:02 10° NE
CENTAUR R/B 4.0 22:22:29 16° SE 22:24:35 19° ESE 22:28:57 10° ENE
Cosmos 1777 Rocket 4.3 22:22:11 10° NNW 22:27:23 57° WSW 22:29:53 29° S
Cosmos 1758 Rocket 4.3 22:25:31 22° SW 22:27:59 46° WNW 22:32:15 10° N
USA 267 3.2 22:28:26 10° ENE 22:35:01 89° SSE 22:41:35 10° WSW
Cosmos 2322 Rocket 2.9 22:33:32 10° NW 22:38:50 41° WSW 22:41:25 26° SSW
Cosmos 1898 Rocket 4.4 22:34:24 10° NNW 22:39:21 43° ENE 22:43:37 14° SE
Cosmos 44 3.2 22:38:36 34° S 22:40:23 57° SE 22:44:46 10° NE
Cosmos-2242 4.5 22:37:47 10° NNW 22:41:21 27° W 22:43:11 20° SW
NOSS 8 (A) 4.1 22:42:54 51° SSW 22:43:33 72° SE 22:46:28 10° NE
BREEZE-M DEB (TANK) 4.4 22:40:45 10° W 22:44:48 63° SSW 23:02:43 10° ESE
Cosmos 1933 3.7 22:47:04 10° N 22:51:02 56° ENE 22:52:47 30° SE
Cosmos 2333 Rocket 2.2 22:51:26 10° NNW 22:57:11 71° WSW 23:00:27 27° SSE
Cosmos 1605 Rocket 4.0 22:53:09 10° N 22:59:35 84° W 23:03:25 26° S
Cosmos 1076 Rocket 3.9 22:58:18 31° SSE 23:00:08 55° E 23:04:24 10° NNE
ALOS 2 4.1 23:00:42 19° SW 23:02:22 24° W 23:05:59 10° NW
BREEZE-M DEB (TANK) 4.2 22:51:37 10° WNW 23:03:49 54° SW 23:06:22 24° SSE
Cosmos 1340 Rocket 3.6 23:05:53 26° SW 23:07:39 43° WNW 23:11:28 10° N
Gbstr 26 Del rocket 3.1 23:05:10 18° WSW 23:08:27 72° SSE 23:13:51 10° ENE
Cosmos 1812 3.2 23:05:07 10° N 23:08:53 54° ENE 23:10:36 28° SE
Resurs 1-4 Rocket 4.0 23:05:39 10° NE 23:09:24 19° E 23:13:00 10° SE
USA 234 3.6 23:07:03 23° SSE 23:10:45 44° SW 23:16:59 10° WNW
Cosmos 2360 Rocket 3.1 23:08:52 10° NW 23:13:55 34° WSW 23:16:14 25° SSW
Meteor 2-3 Rocket 3.7 23:12:54 28° S 23:15:58 79° E 23:21:34 10° NNE
BREEZE-M DEB (TANK) 2.7 23:11:00 10° W 23:17:34 84° S 23:20:11 10° E
Cosmos 2227 Rocket 4.4 23:16:21 10° ESE 23:18:46 13° E 23:21:12 10° ENE
Lacrosse 4 Rocket 4.3 23:18:34 10° N 23:21:02 15° NNE 23:23:32 10° ENE
CZ-2D R/B 3.8 23:17:23 10° NE 23:21:26 22° E 23:25:00 12° SE
Cosmos 1184 Rocket 4.4 23:20:20 10° N 23:22:58 26° ENE 23:24:32 17° ESE
Cosmos 1763 Rocket 3.5 23:21:39 29° SSW 23:24:24 77° ESE 23:29:44 10° NNE
Cosmos 2151 3.0 23:23:01 33° S 23:24:54 76° E 23:29:14 10° NNE
SJ 16-02 3.6 23:23:20 10° WNW 23:25:08 12° W 23:26:24 11° WSW
PSLV R/B 4.2 23:22:04 10° N 23:26:43 54° WNW 23:29:18 24° SW
Cosmos 1782 2.8 23:24:15 10° NNW 23:28:14 72° W 23:29:46 35° S
Cosmos 1862 4.3 23:27:47 23° SE 23:29:35 37° E 23:33:14 10° NNE
Cosmos 1151 Rocket 4.2 23:28:50 10° N 23:32:59 39° ENE 23:36:21 14° SE
Cosmos 990 Rocket 4.2 23:29:51 10° NNW 23:34:51 51° WSW 23:37:18 28° SSW
Cosmos 841 Rocket 4.2 23:32:18 23° SSE 23:35:01 41° ESE 23:39:52 10° NE
ADEOS II 4.2 23:34:00 10° NE 23:37:34 18° E 23:41:06 10° SE
USA 290 2.5 23:35:03 10° NW 23:38:12 50° WSW 23:38:48 43° SSW
Cosmos 2221 3.9 23:34:53 10° NNW 23:38:35 27° W 23:40:15 21° SW
NOSS 0 Rocket 4.0 23:33:06 10° NNW 23:39:20 83° ENE 23:45:21 11° SSE
SL-23 DEB 3.5 23:39:14 42° S 23:39:47 48° SSE 23:42:58 10° ENE
Cosmos 2237 Rocket 2.8 23:34:18 10° NNW 23:39:55 57° NE 23:45:28 10° SE
Thor Agena Rocket 4.1 23:35:01 10° NNE 23:40:03 47° E 23:43:06 22° SSE
Cosmos 2285 Rocket 4.1 23:36:02 25° S 23:40:03 74° ESE 23:46:29 10° NNE
Cosmos 858 Rocket 4.5 23:36:34 10° NNW 23:41:51 85° ENE 23:45:49 18° SSE
COSMOS 2428 2.8 23:38:03 10° NW 23:43:42 61° WSW 23:47:19 22° S
MOZ.5/SAFIR/RUBIN 5/SL-8 3.8 23:40:59 22° SSE 23:44:02 84° ENE 23:48:46 10° NNW
ERS-2 4.1 23:42:44 10° NNW 23:45:27 20° WNW 23:47:29 13° WSW
Cosmos 2297 Rocket 3.4 23:44:07 17° SSE 23:47:32 31° ESE 23:52:26 10° NE
COSMOS 2455 3.1 23:42:26 10° NW 23:48:29 72° NE 23:54:29 10° SE
ISS -3.9 23:47:45 33° SW 23:49:03 69° SSE 23:52:25 10° ENE
Cosmos 2219 Rocket 2.8 23:45:13 10° NW 23:50:27 39° WSW 23:53:12 24° SSW
COSMOS 2487 3.4 23:49:36 24° WSW 23:50:46 33° WNW 23:53:37 10° N
Cosmos 468 Rocket 4.1 23:49:02 24° SSW 23:52:16 75° WNW 23:57:37 10° NNE
SL-4 R/B 1.8 23:49:54 10° W 23:53:28 76° N 23:57:20 10° ENE
SL-27 R/B 3.7 23:53:43 20° WSW 23:55:16 29° WNW 23:58:12 10° N
